Regional Weather Roundup
Issued by NWS

Home | Current Version | Previous Version | Graphics & Text | Print | Product List | Glossary On
Versions: 1 2 3 4 5 6 7 8 9 10 11 12 13 14 15 16 17 18 19 20 21 22 23 24 25 26 27 28 29 30 31 32 33 34 35 36 37 38 39 40 41 42 43 44 45 46 47 48 49 50
000
ASUS45 KABQ 011910
RWRNM
NEW MEXICO REGIONAL WEATHER ROUNDUP
NATIONAL WEATHER SERVICE ALBUQUERQUE NM
100 PM MDT WED JUL 01 2015

NOTE: "FAIR" MEANS FEW OR NO CLOUDS BELOW 12,000 FEET AGL WITH NO
       SIGNIFICANT WEATHER OR OBSTRUCTIONS TO VISION.

      THIS PRODUCT IS RELEASED AS TWO VERSIONS.  ONE VERSION NEAR
      THE TOP OF THE HOUR CONTAINING PRELIMINARY DATA FROM ALBUQUERQUE
      AND OTHER STATIONS.  A FINAL VERSION WITH ADDITIONAL DATA IS
      ISSUED ABOUT 10 MINUTES AFTER THE HOUR.

NMZ501-503-504-510>518-012000-
NORTHWEST PLATEAU/NORTHCENTRAL MOUNTAINS

CITY           SKY/WX    TMP DP  RH WIND       PRES   REMARKS
FARMINGTON     SUNNY     88  45  22 VRB3      30.11F
LOS ALAMOS     PTSUNNY   82  46  28 E8        30.28F
SANTA FE       MOSUNNY   84  44  24 MISG      30.19F
TAOS           SUNNY     84  45  24 N7        30.25F
ANGEL FIRE     FAIR      72  49  45 SE9       30.37S

$$
NMZ402-403-502-505>509-012000-
WESTCENTRAL MOUNTAINS/SOUTHWEST MOUNTAINS

CITY           SKY/WX    TMP DP  RH WIND       PRES   REMARKS
GALLUP         SUNNY     86  52  30 SW9       30.20F
GRANTS         SUNNY     89  42  19 NW5       30.21F
SILVER CITY      N/A     86  45  23 S10       30.18F

$$
NMZ407-409-411-412-012000-
SOUTHERN DESERTS

CITY           SKY/WX    TMP DP  RH WIND       PRES   REMARKS
LORDSBURG      FAIR      90  45  20 E5        30.08F
DEMING         SUNNY     91  46  21 VRB5      30.08F
LAS CRUCES     SUNNY     91  44  20 SE5       30.10F
HOLLOMAN AFB   MOSUNNY   90  48  23 SE6       30.05F
ALAMOGORDO     SUNNY     90  48  24 SE8       30.07F
T OR C         SUNNY     90  48  23 E7        30.09F

$$
NMZ519>523-012000-
CENTRAL VALLEYS/CENTRAL HIGHLANDS

CITY           SKY/WX    TMP DP  RH WIND       PRES   REMARKS
ALBUQUERQUE    MOSUNNY   88  47  24 S5        30.13F
DOUBLE EAGLE   PTSUNNY   88  48  25 CALM      30.17F
MORIARTY ARPT    N/A     89  41  18 S5        30.20F
CLINES CORNERS SUNNY     83  45  26 CALM      30.24F
BELEN          FAIR      89  45  21 S9        30.11F
SOCORRO        FAIR      91  45  20 E6        30.10F

$$
NMZ524>526-539-540-012000-
SOUTHCENTRAL MOUNTAINS

CITY           SKY/WX    TMP DP  RH WIND       PRES   REMARKS
RUIDOSO        SUNNY     79  45  29 SE7       30.27F

$$
NMZ527>531-012000-
NORTHEAST HIGHLANDS/NORTHEAST PLAINS

CITY           SKY/WX    TMP DP  RH WIND       PRES   REMARKS
LAS VEGAS      MOSUNNY   82  51  34 E5        30.24F
RATON          SUNNY     87  51  28 E12       30.19F
CLAYTON        SUNNY     94  51  23 NE16      30.09F

$$
NMZ532>537-012000-
EASTCENTRAL PLAINS

CITY           SKY/WX    TMP DP  RH WIND       PRES   REMARKS
TUCUMCARI      SUNNY     95  49  20 S6        30.01F
CANNON AFB     SUNNY     89  50  25 VRB6      30.07S
CLOVIS AIRPORT SUNNY     88  52  29 W7          N/A

$$
NMZ028-029-538-012000-
SOUTHEAST PLAINS

CITY           SKY/WX    TMP DP  RH WIND       PRES   REMARKS
ROSWELL        SUNNY     90  54  29 VRB5      30.03F
ARTESIA        SUNNY     90  55  31 SE10G22   30.04F
CARLSBAD       SUNNY     93  58  30 S13G18    30.01F
HOBBS          SUNNY     88  55  33 S9        30.07F


$$


USA.gov is the U.S. government's official web portal to all federal, state and local government web resources and services.